STARLINK-1146 (45094 NORAD) Tracking and Keplerian Element Data

This shows tracking and keplerian element data for the satellite.

Feedback or suggestion? Click here.




ElementValue
Catalog45094
NameSTARLINK-1146
Epoch Orbit175
Epoch Day188.91667824
Epoch Year2020
RAAN187.1226
Inclination53.0079
Eccentricity0.0001458
Argument of Perigee82.8432
Mean Anonmoly9.5315
Mean Motion15.05569949
Decay Rate0.00037166
L11 45094U 20006BC 20188.91667824 .00037166 00000-0 25572-2 0 9998
L22 45094 53.0079 187.1226 0001458 82.8432 9.5315 15.05569949 1759

Live tracking and technical data element details for STARLINK-1146 (NORAD 45094). STARLINK-1146 can be tracked NOW for your location showing map with azimuth and elevation plus other details from your city location.

Track the satellite on the map from your city or location and see movement details for azimuth, elevation, latitude, longitude, range, height, and movement on the map or in text.







IsCatalogInMostPopularTable: catalog: 45094, numindb: 26
Update: records affected: 1



GetName: 45094 STARLINK-1146

Hit Count: updated at: Wed, 08 Jul 2020 05:16:52 GMT